User: anonymous   Login
Location: Saint-Denis
(20.8800°S, 55.4481°E)
Time: 00:57:00
(UTC+04:00)
Language:

UNISAT 6 - Orbit

View from above orbital plane
View from above orbital plane
View from above satellite
View from above satellite

Ground track
Ground track

The orbit data is extracted from the following two-line orbital elements,

1 40012U 14033C   23155.52368855  .00002508  00000-0  35548-3 0  9999
2 40012  97.6717 330.2017 0057124  97.3981 263.3726 14.76736203481908
Epoch (UTC): 04 June 2023 12:34:06
Eccentricity: 0.0057124
inclination: 97.6717°
perigee height: 599 km
apogee height: 680 km
right ascension of ascending node: 330.2017°
argument of perigee: 97.3981°
revolutions per day: 14.76736203
mean anomaly at epoch: 263.3726°
orbit number at epoch: 48190

The dashed part of the orbit path shows where the satellite is in the earth's shadow,  

DLR